{"data":{"norad_id":62983,"epoch":"2026-09-21T16:32:59.956512Z","epoch_age_seconds":62316,"freshness":"FRESH","line1":"1 62983U 25031C   26264.68958283  .00181874  00000+0  13848-2 0  9992","line2":"2 62983  43.0014 260.4395 0001615 272.9438  87.1245 15.70931013 93569","mean_motion":15.70931013,"eccentricity":0.0001615,"inclination_deg":43.0014,"raan_deg":260.4395,"arg_perigee_deg":272.9438,"mean_anomaly_deg":87.1245,"bstar":0.0013848,"rev_number":9356,"period_min":91.665387473002,"perigee_km":355.14734087177,"apogee_km":357.32254300901,"semimajor_km":6734.3719419404,"source":"CELESTRAK","updated_at":"2026-09-22T09:00:49.716595Z"}}